CAPE
0 0 0 0 0 0 0 0 0 0 0 0 0 0 5 139 137 66 246 473 97 0 698 1498 1431 1106 800 447 377 135 52 79 98 48 101 30 58 159 127 54 27 0 0 0 0 0 0 0 0
0 0 0 0 0 0 0 0 0 0 0 0 0 0 0 0 0 7 224 517 7 2 391 1139 1432 1121 842 504 382 226 152 161 202 136 216 107 0 54 22 0 0 0 0 0 0 0 0 0 0
0 0 0 0 0 0 0 0 0 0 0 0 0 0 0 0 0 3 209 576 159 7 68 760 1173 1052 817 597 441 362 238 292 337 258 336 228 12 0 0 0 0 0 0 0 0 0 0 0 0
0 0 0 0 0 0 0 0 0 0 0 0 0 0 0 0 0 9 96 645 507 24 102 491 838 952 738 726 558 541 406 483 493 457 404 347 88 0 0 0 0 0 0 0 0 0 0 0 0
0 0 0 0 0 0 0 0 0 0 0 0 0 0 0 0 0 51 55 247 666 206 147 316 656 1009 889 798 672 723 737 742 719 653 581 468 181 1 0 0 0 0 0 0 0 0 0 0 0
0 0 0 0 0 0 0 0 0 0 0 0 0 0 0 0 0 0 32 121 270 489 234 170 460 982 1351 891 833 860 958 921 970 919 811 627 258 22 0 0 0 0 0 0 0 0 0 0 0
0 0 0 0 0 0 0 0 0 0 0 0 0 0 0 0 0 0 50 50 241 549 552 209 187 718 1344 1198 920 906 994 1110 1140 1040 957 723 305 47 0 0 0 0 0 0 0 0 0 0 0
0 0 0 0 0 0 0 0 0 0 0 0 0 0 0 0 0 0 0 61 470 808 745 305 98 309 830 1431 1102 983 1023 1068 1153 1124 978 735 310 51 0 0 0 0 0 0 0 0 0 0 0
0 0 0 0 0 0 0 0 0 0 0 0 0 0 0 0 0 0 0 0 604 1021 769 508 182 127 271 884 1302 1153 1181 1063 1029 1004 871 536 134 41 0 0 0 0 0 0 0 0 0 0 0
0 0 0 0 0 0 0 0 0 0 0 0 0 0 0 0 0 0 0 0 0 1423 1109 668 301 116 121 443 851 922 1050 991 825 745 576 172 55 0 0 0 0 0 0 0 0 0 0 0 0
0 0 0 0 0 0 0 0 0 0 0 0 0 0 0 2 0 0 0 0 0 19 1378 647 429 167 143 240 413 253 425 383 381 328 142 59 0 0 10 0 0 0 0 0 0 0 0 0 0
0 0 0 0 0 0 0 0 0 0 0 0 0 4 1 0 0 0 0 0 0 0 306 545 417 208 173 343 434 245 104 101 57 89 72 0 0 0 63 34 8 8 0 0 0 0 0 0 1
0 0 0 0 0 0 0 0 0 0 0 0 1 2 0 0 0 0 0 0 0 0 143 369 586 459 316 368 567 312 225 126 106 97 128 73 0 7 32 126 70 75 60 97 11 0 2 1 80
0 0 0 0 0 0 0 0 0 0 0 0 0 2 0 0 0 0 0 0 0 0 80 121 943 684 565 1162 1143 1029 375 336 266 199 173 251 163 28 267 285 326 256 319 260 102 68 55 35 120
0 0 0 0 0 0 0 0 0 0 0 0 0 0 0 0 0 0 0 0 0 0 0 11 885 1289 824 914 848 1069 1023 636 343 431 314 254 358 585 150 720 294 559 479 414 300 198 192 157 147
0 0 0 0 0 0 0 0 0 0 0 0 0 0 0 0 0 0 0 0 0 0 0 0 288 695 1114 956 1029 1051 942 938 839 640 584 578 397 661 1028 623 718 442 346 218 191 91 49 25 54
0 0 0 0 0 0 0 0 0 0 0 0 0 0 0 0 0 0 0 0 0 0 0 0 9 370 926 816 767 912 1109 889 791 698 1072 1025 940 930 982 1081 951 727 432 332 195 111 77 29 84
0 0 0 0 0 0 0 0 0 0 0 0 0 0 0 0 0 0 0 0 0 0 0 0 15 135 1021 739 853 1005 956 977 720 608 497 1564 1360 1117 1103 1099 1032 800 643 410 219 158 128 218 329
0 0 0 0 0 0 0 0 0 0 0 0 0 0 0 0 0 0 0 0 0 0 0 0 0 1 305 1110 693 86 411 762 738 599 387 377 806 1702 1223 956 1108 944 702 437 216 141 152 229 475
0 0 0 0 0 0 0 0 0 0 0 0 0 0 0 0 0 0 0 0 0 0 0 0 0 0 0 261 1256 852 272 577 1022 855 708 305 278 478 1051 1053 827 832 816 568 264 150 104 257 539
0 0 0 0 0 0 0 0 0 0 0 0 0 0 0 0 0 0 0 0 0 0 0 0 0 1 0 0 126 308 733 1135 1152 1014 894 720 539 413 469 519 564 373 339 171 237 277 157 88 388
0 0 0 0 0 0 0 0 0 0 0 0 0 0 0 0 0 0 0 0 0 0 0 0 0 0 0 0 0 0 14 271 611 551 689 988 1061 923 655 498 406 308 210 200 161 272 354 417 256
0 0 0 0 0 0 0 0 0 0 0 0 0 0 0 0 0 0 0 0 0 0 0 0 0 0 0 0 0 0 0 46 28 5 31 196 342 661 909 903 597 450 377 254 333 572 680 737 520
0 0 0 0 0 0 0 0 0 0 0 0 0 0 0 0 0 0 0 0 0 0 0 0 0 0 0 15 0 0 0 1 17 0 2 67 271 378 776 767 917 951 920 697 440 477 692 1005 768
0 0 0 0 0 0 0 0 0 0 0 0 0 0 0 0 0 0 0 0 0 0 0 0 0 0 0 0 0 0 0 9 0 0 0 0 3 10 2 96 844 976 872 917 811 528 717 1370 940
0 0 1 0 0 0 0 0 0 5 0 0 0 0 0 0 0 0 0 0 0 0 0 0 0 0 0 0 2 13 0 1 60 80 0 0 0 0 4 44 540 1018 1161 1107 1007 1030 850 827 707
0 0 0 0 0 0 0 0 0 0 1 0 0 0 0 0 0 0 0 0 0 0 0 0 0 0 0 0 0 0 0 0 60 113 169 183 215 140 78 54 42 467 895 901 1282 1296 873 934 489
0 0 1 1 8 0 0 0 0 16 51 10 26 0 0 0 0 0 0 0 0 0 0 0 1 2 1 0 0 0 0 0 0 99 135 87 54 106 249 349 214 67 69 67 981 1254 1271 1084 916
0 0 0 0 0 1 0 0 11 4 0 0 6 3 0 0 0 0 0 0 0 0 0 0 17 22 12 6 0 0 0 0 0 0 0 6 42 98 230 236 259 375 573 465 48 779 1682 1610 1566
3 13 5 0 2 1 3 0 0 0 0 0 0 1 0 0 0 0 0 6 0 0 0 0 26 23 15 29 2 0 0 0 0 0 0 0 0 0 7 96 64 55 102 492 455 70 1410 2469 2150
CIN
-0 -0 -0 -0 -0 -0 -0 -0 -0 -0 -0 -0 -0 -0 -105 -141 -123 -139 -276 -284 -458 -0 -535 -385 -360 -381 -401 -421 -435 -456 -487 -447 -420 -430 -368 -397 -312 -244 -275 -318 -317 -0 -0 -0 -0 -0 -0 -0 -0
-0 -0 -0 -0 -0 -0 -0 -0 -0 -0 -0 -0 -0 -0 -0 -0 -0 -138 -212 -340 -189 -131 -584 -459 -393 -383 -399 -417 -429 -435 -434 -396 -357 -356 -315 -346 -0 -302 -342 -0 -0 -0 -0 -0 -0 -0 -0 -0 -0
-0 -0 -0 -0 -0 -0 -0 -0 -0 -0 -0 -0 -0 -0 -0 -0 -0 -76 -295 -338 -496 -190 -624 -526 -450 -424 -421 -426 -438 -437 -440 -381 -323 -323 -265 -281 -273 -0 -0 -0 -0 -0 -0 -0 -0 -0 -0 -0 -0
-0 -0 -0 -0 -0 -0 -0 -0 -0 -0 -0 -0 -0 -0 -0 -0 -0 -166 -175 -338 -359 -608 -602 -566 -507 -461 -448 -415 -417 -401 -407 -360 -319 -299 -271 -260 -325 -0 -0 -0 -0 -0 -0 -0 -0 -0 -0 -0 -0
-0 -0 -0 -0 -0 -0 -0 -0 -0 -0 -0 -0 -0 -0 -0 -0 -0 -142 -182 -192 -339 -501 -535 -552 -510 -448 -418 -417 -407 -377 -322 -283 -264 -255 -247 -248 -310 -25 -0 -0 -0 -0 -0 -0 -0 -0 -0 -0 -0
-0 -0 -0 -0 -0 -0 -0 -0 -0 -0 -0 -0 -0 -0 -0 -0 -0 -0 -132 -129 -228 -391 -503 -567 -515 -398 -330 -382 -375 -344 -299 -265 -189 -180 -201 -221 -292 -402 -0 -0 -0 -0 -0 -0 -0 -0 -0 -0 -0
-0 -0 -0 -0 -0 -0 -0 -0 -0 -0 -0 -0 -0 -0 -0 -0 -0 -0 -145 -142 -119 -376 -409 -533 -546 -430 -300 -306 -322 -308 -284 -214 -207 -174 -158 -200 -283 -393 -0 -0 -0 -0 -0 -0 -0 -0 -0 -0 -0
-0 -0 -0 -0 -0 -0 -0 -0 -0 -0 -0 -0 -0 -0 -0 -0 -0 -0 -0 -140 -127 -317 -360 -447 -563 -500 -382 -239 -290 -280 -280 -249 -184 -170 -184 -203 -261 -393 -0 -0 -0 -0 -0 -0 -0 -0 -0 -0 -0
-0 -0 -0 -0 -0 -0 -0 -0 -0 -0 -0 -0 -0 -0 -0 -0 -0 -0 -0 -0 -114 -193 -311 -382 -469 -545 -475 -316 -220 -245 -225 -242 -236 -204 -215 -276 -377 -456 -0 -0 -0 -0 -0 -0 -0 -0 -0 -0 -0
-0 -0 -0 -0 -0 -0 -0 -0 -0 -0 -0 -0 -0 -0 -0 -0 -0 -0 -0 -0 -0 -93 -201 -291 -368 -499 -491 -355 -280 -279 -244 -234 -269 -288 -293 -403 -508 -0 -0 -0 -0 -0 -0 -0 -0 -0 -0 -0 -0
-0 -0 -0 -0 -0 -0 -0 -0 -0 -0 -0 -0 -0 -0 -0 -68 -0 -0 -0 -0 -0 -100 -97 -200 -270 -424 -460 -384 -362 -423 -373 -366 -358 -371 -447 -514 -0 -0 -472 -0 -0 -0 -0 -0 -0 -0 -0 -0 -0
-0 -0 -0 -0 -0 -0 -0 -0 -0 -0 -0 -0 -0 -30 -3 -0 -0 -0 -0 -0 -0 -0 -80 -175 -254 -301 -356 -306 -318 -373 -463 -490 -518 -499 -497 -57 -0 -0 -407 -414 -463 -493 -0 -0 -0 -0 -0 -0 -74
-0 -0 -0 -0 -0 -0 -0 -0 -0 -0 -0 -0 -24 -23 -0 -0 -0 -0 -0 -0 -0 -65 -162 -146 -200 -227 -226 -256 -213 -247 -307 -377 -406 -431 -415 -452 -0 -404 -433 -358 -396 -403 -401 -388 -272 -0 -193 -77 -534
-0 -0 -0 -0 -0 -0 -0 -0 -0 -0 -0 -0 -0 -16 -0 -0 -0 -0 -0 -0 -0 -0 -157 -111 -95 -135 -175 -128 -128 -110 -208 -265 -287 -303 -334 -303 -328 -413 -261 -278 -288 -311 -288 -324 -365 -367 -421 -436 -474
-0 -0 -0 -0 -0 -0 -0 -0 -0 -0 -0 -0 -0 -0 -0 -0 -0 -0 -0 -0 -0 -0 -9 -203 -64 -54 -56 -57 -65 -70 -124 -150 -218 -226 -230 -249 -234 -195 -283 -181 -243 -216 -251 -291 -331 -340 -373 -362 -394
-0 -0 -0 -0 -0 -0 -0 -0 -0 -0 -0 -0 -0 -0 -0 -0 -0 -0 -0 -0 -0 -0 -0 -0 -102 -79 -38 -45 -57 -58 -76 -154 -119 -135 -199 -195 -225 -189 -156 -200 -191 -197 -203 -228 -259 -297 -329 -344 -344
-0 -0 -0 -0 -0 -0 -0 -0 -0 -0 -0 -0 -0 -0 -0 -0 -0 -0 -0 -0 -0 -0 -0 -0 -246 -130 -93 -80 -96 -100 -73 -81 -125 -84 -113 -155 -167 -161 -141 -144 -164 -193 -210 -215 -239 -278 -306 -311 -277
-0 -0 -0 -0 -0 -0 -0 -0 -0 -0 -0 -0 -0 -0 -0 -0 -0 -0 -0 -0 -0 -0 -0 -0 -316 -233 -128 -97 -99 -64 -74 -71 -78 -86 -133 -89 -95 -107 -132 -128 -144 -176 -191 -234 -263 -280 -282 -258 -217
-0 -0 -0 -0 -0 -0 -0 -0 -0 -0 -0 -0 -0 -0 -0 -0 -0 -0 -0 -0 -0 -0 -0 -0 -0 -181 -220 -100 -107 -109 -62 -103 -102 -95 -81 -196 -107 -50 -90 -121 -126 -149 -188 -241 -246 -250 -241 -226 -168
-0 -0 -0 -0 -0 -0 -0 -0 -0 -0 -0 -0 -0 -0 -0 -0 -0 -0 -0 -0 -0 -0 -0 -0 -0 -0 -0 -217 -87 -102 -71 -37 -47 -64 -105 -149 -135 -154 -87 -105 -121 -142 -157 -223 -249 -228 -260 -234 -175
-0 -0 -0 -0 -0 -0 -0 -0 -0 -0 -0 -0 -0 -0 -0 -0 -0 -0 -0 -0 -0 -0 -0 -0 -0 -114 -0 -19 -221 -168 -99 -68 -42 -30 -53 -92 -133 -162 -161 -140 -101 -163 -223 -258 -245 -230 -196 -256 -216
-0 -0 -0 -0 -0 -0 -0 -0 -0 -0 -0 -0 -0 -0 -0 -0 -0 -0 -0 -0 -0 -0 -0 -0 -0 -0 -0 -0 -0 -0 -211 -115 -113 -81 -51 -35 -45 -72 -179 -159 -135 -179 -219 -262 -261 -219 -181 -212 -209
-0 -0 -0 -0 -0 -0 -0 -0 -0 -0 -0 -0 -0 -0 -0 -0 -0 -0 -0 -0 -0 -0 -0 -0 -0 -0 -0 -0 -0 -0 -0 -173 -214 -240 -200 -63 -74 -30 -65 -94 -136 -156 -168 -191 -200 -175 -152 -165 -205
-0 -0 -0 -0 -0 -0 -0 -0 -0 -0 -0 -0 -0 -0 -0 -0 -0 -0 -0 -0 -0 -0 -0 -0 -0 -0 -0 -201 -0 -0 -0 -25 -200 -0 -171 -126 -83 -45 -65 -52 -62 -119 -114 -165 -186 -173 -180 -127 -169
-0 -0 -0 -0 -0 -0 -0 -0 -0 -0 -0 -3 -0 -0 -0 -0 -0 -0 -0 -0 -0 -0 -0 -0 -0 -0 -0 -0 -0 -0 -0 -69 -0 -0 -0 -0 -150 -137 -102 -44 -49 -57 -80 -113 -150 -135 -143 -109 -169
-0 -6 -15 -0 -0 -0 -0 -0 -0 -112 -0 -30 -0 -0 -0 -0 -0 -0 -0 -0 -0 -0 -0 -0 -0 -0 -0 -0 -38 -89 -0 -14 -130 -135 -9 -0 -0 -0 -144 -120 -62 -45 -71 -101 -127 -131 -128 -125 -169
-0 -0 -0 -5 -0 -12 -0 -0 -0 -0 -17 -20 -103 -0 -0 -0 -0 -0 -0 -0 -0 -0 -0 -0 -1 -0 -0 -0 -0 -0 -0 -0 -64 -102 -80 -100 -76 -137 -115 -142 -137 -88 -98 -68 -38 -69 -95 -128 -185
-0 -0 -11 -44 -14 -0 -0 -0 -0 -110 -114 -153 -65 -0 -0 -0 -0 -0 -0 -0 -0 -0 -0 -0 -17 -24 -7 -0 -0 -0 -0 -0 -0 -92 -90 -135 -140 -135 -115 -105 -130 -162 -158 -189 -60 -78 -91 -137 -183
-0 -14 -18 -0 -0 -1 -0 -0 -2 -117 -0 -8 -148 -38 -0 -0 -0 -0 -0 -0 -0 -0 -0 -0 -46 -36 -38 -33 -0 -0 -0 -0 -0 -0 -0 -46 -100 -91 -51 -68 -67 -96 -66 -76 -167 -58 -40 -69 -81
-18 -67 -45 -0 -28 -14 -2 -0 -4 -0 -0 -0 -0 -41 -0 -0 -0 -0 -0 -65 -0 -0 -0 -1 -35 -30 -32 -29 -20 -0 -0 -0 -0 -0 -0 -0 -0 -0 -125 -38 -73 -100 -136 -82 -95 -144 -19 -6 -24
Wind_Speed
28 29 27 23 20 21 22 25 26 34 27 18 14 11 11 11 12 13 9 9 12 12 13 12 14 16 17 18 20 22 23 25 25 25 25 25 24 24 26 28 28 28 28 28 27 27 26 26 25
27 27 21 20 21 26 28 29 18 20 19 18 16 15 10 9 10 12 12 9 10 11 12 11 13 14 15 16 17 19 20 21 22 23 24 24 24 24 25 26 27 28 27 26 26 26 26 25 24
28 22 23 20 23 27 25 25 26 24 21 19 18 17 14 10 11 13 13 7 8 7 9 9 11 14 16 16 17 18 19 19 19 21 21 22 22 23 23 24 25 26 26 25 25 24 24 24 23
25 22 24 25 31 35 39 32 31 25 21 19 22 17 14 13 15 12 14 4 3 4 4 9 10 12 15 16 17 17 18 19 19 18 19 19 20 19 20 21 22 24 24 23 23 22 22 23 22
22 25 27 28 33 36 40 33 27 24 22 20 21 25 13 13 14 12 15 10 6 2 2 7 8 10 12 15 17 16 15 14 15 17 16 17 17 17 18 18 20 21 22 21 20 20 20 20 20
25 24 30 33 37 39 39 34 38 39 27 25 22 21 14 15 18 19 16 17 9 7 3 7 8 7 8 12 14 15 15 13 13 12 13 13 13 14 15 15 17 19 20 20 19 18 17 17 17
28 32 37 37 40 41 39 35 30 31 36 34 23 24 16 18 20 22 16 19 8 9 6 5 10 9 8 8 11 13 13 11 12 10 9 10 10 11 12 12 14 16 17 17 17 16 15 15 15
27 30 39 39 40 42 37 27 20 25 31 38 29 28 19 22 20 21 19 17 6 9 9 6 10 11 10 8 9 11 12 12 10 8 9 8 7 8 8 10 11 13 14 14 14 14 13 12 11
27 35 40 37 38 38 38 35 24 22 25 23 30 37 23 21 21 20 22 21 8 9 12 9 9 14 13 11 9 9 9 10 10 8 7 7 6 5 5 6 8 9 11 11 12 12 11 10 9
24 35 36 32 36 39 40 38 34 23 27 31 30 27 28 16 20 20 20 21 17 9 15 12 9 14 16 14 12 11 9 8 7 8 6 5 5 4 4 4 5 6 7 8 9 10 9 8 7
23 30 34 35 34 37 40 42 38 31 28 27 28 26 26 17 17 20 18 20 22 17 13 17 13 12 18 17 15 14 12 10 8 7 7 5 4 2 1 2 3 4 5 6 6 7 7 7 6
28 31 31 34 38 41 40 38 41 39 30 22 24 23 26 28 21 19 21 23 23 22 13 16 18 13 16 19 18 16 16 14 12 10 8 7 6 5 3 1 1 2 4 5 5 6 6 7 6
30 33 33 37 36 38 40 43 42 48 41 31 24 19 21 23 20 19 19 22 25 24 20 16 19 15 15 18 20 20 18 18 17 14 12 10 9 8 6 4 3 2 3 4 4 4 5 4 3
29 34 35 34 35 34 35 37 37 44 40 42 35 24 23 22 24 21 21 22 25 27 24 21 22 21 16 14 18 20 21 19 18 17 15 14 12 11 11 8 6 6 4 3 2 2 3 4 3
33 36 36 36 35 37 33 43 45 42 39 41 43 29 20 22 23 26 24 25 23 27 27 24 21 23 20 19 20 21 21 22 23 18 15 14 14 14 12 13 11 12 8 7 4 3 1 2 5
32 32 36 33 34 36 32 49 40 38 35 36 40 39 34 23 25 25 24 22 21 24 27 24 21 24 25 24 23 28 18 22 26 25 20 17 15 16 16 17 16 14 15 16 17 14 13 1 14
27 32 32 36 27 27 26 40 36 30 32 36 36 37 39 38 27 24 22 15 16 19 25 27 28 26 27 26 25 26 29 24 28 27 23 24 23 19 19 20 21 18 16 16 18 19 24 30 23
27 29 32 33 32 33 32 37 30 23 26 33 34 35 32 27 20 13 15 12 13 16 21 25 28 30 26 24 21 21 27 30 26 32 27 26 28 26 23 25 24 23 21 18 20 21 21 25 21
27 33 36 36 37 37 37 36 33 29 29 33 36 36 27 26 25 19 16 16 16 16 20 27 27 31 33 29 29 30 28 29 35 38 28 29 29 30 28 29 30 28 26 26 22 22 26 27 26
23 39 37 39 38 36 38 40 37 32 27 30 36 38 34 31 27 26 20 19 18 19 17 21 28 29 34 34 33 32 29 32 34 34 28 30 30 30 28 28 31 27 26 25 24 20 24 26 23
23 34 32 29 32 32 37 42 41 38 36 36 37 38 38 33 25 20 17 14 14 16 17 19 22 26 25 31 34 32 30 28 32 39 35 33 31 33 30 31 33 26 25 23 23 22 25 29 25
29 30 33 33 34 34 30 47 41 38 42 43 41 38 33 27 23 18 16 15 14 16 17 17 20 25 26 25 30 36 41 40 37 36 38 36 34 30 36 32 34 31 30 27 25 21 22 22 21
20 25 30 29 33 39 36 35 49 38 40 40 42 40 30 26 23 20 17 13 11 11 14 17 22 26 29 29 30 33 40 39 33 31 35 37 46 44 35 34 32 33 35 31 30 28 23 23 22
30 24 24 26 29 33 30 32 32 41 33 37 37 46 27 15 10 7 10 10 13 16 21 24 22 25 29 32 33 35 37 40 42 36 34 34 36 39 42 44 39 38 39 37 36 33 26 27 26
22 26 31 32 33 34 32 32 29 36 36 34 40 31 11 10 9 7 7 8 14 19 19 20 21 25 27 29 32 33 34 35 38 41 36 36 36 37 40 49 44 45 46 44 38 37 30 29 30
28 22 26 34 34 36 34 30 35 33 38 30 27 23 12 8 8 8 8 11 13 15 17 18 19 22 22 25 28 29 32 31 31 31 40 39 35 36 35 30 31 37 40 40 38 34 31 22 24
28 29 27 30 29 31 26 31 39 32 32 35 19 23 13 13 8 8 11 12 13 14 16 16 15 17 20 25 27 27 26 29 31 32 33 33 38 31 34 35 33 32 31 35 30 29 31 30 22
25 27 29 28 33 36 31 28 24 35 32 30 17 23 18 15 16 13 8 7 10 14 16 14 16 19 22 23 25 25 26 27 30 32 32 33 37 36 37 39 39 40 41 37 29 25 27 24 22
33 30 28 27 27 35 36 34 25 25 28 30 27 20 21 23 26 17 16 20 19 17 14 13 16 18 19 19 21 23 26 28 28 28 30 31 33 36 35 36 39 37 40 38 37 31 28 25 24
29 25 24 28 29 29 35 40 31 33 28 28 34 30 27 27 31 30 25 36 16 15 15 15 17 18 20 18 18 22 24 27 27 28 29 30 33 35 36 38 41 42 44 43 38 42 33 27 27
Wind_Direction
296 296 292 293 283 277 274 260 262 279 289 298 296 331 2 337 321 297 342 42 73 91 105 102 103 101 100 99 99 100 99 98 97 96 93 91 89 86 87 90 89 92 97 93 88 82 79 79 79
302 304 296 287 278 268 262 243 303 312 312 297 288 299 348 328 4 -0 341 43 80 96 111 112 110 108 105 104 102 101 100 99 97 97 96 93 92 90 91 90 93 98 97 98 89 82 80 80 80
298 304 289 284 274 266 262 259 296 302 308 306 288 293 308 306 332 326 357 28 66 89 116 126 119 118 116 114 112 109 107 104 101 99 97 95 94 93 91 88 89 99 102 95 92 87 86 79 80
296 293 280 277 270 263 252 274 280 302 302 309 293 295 311 314 306 325 337 351 3 90 116 144 134 129 127 123 121 116 113 110 108 103 100 98 95 90 87 86 87 94 99 99 90 85 85 76 75
294 281 274 275 271 266 259 271 277 296 297 305 313 298 296 321 331 330 326 321 283 208 115 175 157 144 137 132 129 125 118 112 109 107 103 100 97 93 90 86 89 90 96 101 95 94 89 80 74
280 281 273 271 270 267 266 274 272 268 284 290 305 321 318 320 317 319 316 306 284 231 194 175 187 181 161 144 137 134 127 121 114 108 106 101 95 93 87 83 85 91 95 103 104 103 97 87 85
273 271 269 270 269 269 268 285 270 267 268 270 291 296 320 327 323 317 311 310 304 236 217 198 196 205 198 172 153 144 139 132 124 116 107 102 96 91 89 81 77 91 94 101 111 110 107 95 84
273 274 268 269 269 269 271 288 289 274 267 265 280 281 291 326 323 325 329 310 313 240 232 222 210 213 216 215 182 163 153 144 136 126 118 107 97 91 82 78 78 87 95 97 111 120 114 105 99
273 267 265 270 271 274 271 281 287 283 276 276 274 272 284 320 318 321 330 321 320 257 237 238 234 224 222 226 219 193 176 159 149 144 133 123 111 96 79 67 68 80 82 92 104 131 128 108 98
271 268 270 277 275 271 269 276 286 281 273 274 281 284 275 305 312 303 312 319 323 282 247 240 236 229 223 234 231 221 208 199 180 163 158 151 136 119 102 83 77 77 76 84 100 130 137 129 119
275 272 277 277 278 276 274 272 277 285 274 274 275 279 272 283 304 299 308 314 306 319 261 250 243 229 223 230 231 232 229 225 222 205 187 189 192 179 123 62 56 53 73 66 94 133 130 136 133
277 278 279 279 276 276 277 279 276 277 285 290 277 278 280 270 285 291 291 297 300 302 298 256 247 237 230 231 233 236 236 236 234 229 218 209 217 215 228 263 75 52 50 54 89 116 121 155 142
282 282 283 280 279 278 281 275 279 272 277 292 297 276 271 287 271 287 291 287 284 289 305 272 251 239 235 235 237 242 244 240 240 237 233 232 229 241 253 248 288 340 3 30 62 95 100 145 138
292 287 286 286 285 284 282 282 283 275 280 280 286 291 271 270 279 280 284 279 278 279 280 292 255 247 235 234 236 244 248 249 244 240 237 238 244 246 264 260 270 293 311 341 25 73 123 171 160
297 292 289 285 287 284 293 280 276 281 282 279 274 287 276 270 274 277 278 279 275 269 270 271 273 250 242 243 242 245 248 252 249 244 234 232 239 251 249 268 267 289 292 310 306 312 317 238 12
296 295 289 292 291 287 286 278 283 283 282 279 276 278 281 276 273 274 281 275 273 264 261 267 263 259 254 258 259 250 250 252 251 251 247 238 239 248 259 264 270 279 291 298 305 316 326 310 352
299 292 293 292 299 294 287 281 285 285 283 281 281 280 279 282 276 272 277 266 266 267 261 261 261 260 259 261 265 261 250 248 248 253 257 250 252 252 259 268 272 278 284 295 301 306 306 299 324
302 299 296 298 304 305 301 289 288 285 287 286 289 285 280 277 282 286 273 259 259 265 263 263 262 260 262 258 264 270 258 253 251 253 256 253 253 253 260 267 271 275 282 286 296 298 308 309 324
303 299 299 300 302 301 296 298 299 295 289 286 285 292 282 275 273 278 275 271 270 269 265 261 266 263 260 261 259 259 265 262 259 255 253 254 256 255 261 269 271 273 278 283 291 294 295 300 309
313 293 301 300 301 298 296 294 296 295 295 290 286 285 287 279 274 274 272 264 264 266 269 270 268 270 263 263 263 261 261 261 259 261 260 253 256 257 260 265 270 274 278 282 287 286 293 299 309
312 302 310 310 307 303 301 294 295 292 294 294 293 287 280 281 269 263 256 252 255 264 271 273 271 270 275 266 262 265 263 260 260 260 259 255 259 259 260 264 267 274 276 284 284 286 288 294 304
310 311 306 306 308 306 310 298 296 298 295 292 292 290 282 274 264 251 246 248 249 263 270 273 275 271 274 279 269 261 261 260 261 268 266 263 261 266 261 266 265 270 273 278 282 291 290 293 299
306 312 307 309 306 306 302 302 294 301 296 294 293 289 285 272 262 246 243 244 263 266 277 285 281 276 277 276 276 272 265 267 263 272 271 268 262 265 265 264 265 268 271 275 278 281 284 284 296
309 308 304 304 306 296 303 297 295 298 304 302 300 293 279 256 247 249 220 237 262 275 280 283 285 282 279 277 276 275 272 271 268 265 271 275 271 266 263 265 268 267 271 273 277 275 279 278 284
298 307 301 296 296 289 303 297 292 305 307 308 298 318 271 216 216 204 216 251 275 280 283 279 280 285 282 277 277 277 274 275 273 267 267 270 275 276 273 261 271 269 269 270 275 271 278 273 278
324 309 301 303 302 301 305 294 299 310 306 311 302 309 297 267 235 238 249 269 276 276 276 276 277 282 287 282 280 280 278 281 277 274 268 268 275 276 279 280 272 269 269 270 272 273 268 261 274
320 308 307 306 305 302 300 295 300 304 308 309 289 288 284 277 273 274 275 281 275 277 275 270 274 280 287 287 281 281 283 282 279 275 273 273 271 277 277 275 275 276 275 274 272 271 269 269 262
316 319 311 309 305 298 301 290 301 302 312 310 307 284 298 289 288 291 303 295 292 290 285 266 274 279 286 286 283 282 284 288 285 279 280 281 279 278 278 276 275 273 272 275 280 273 270 268 262
315 313 315 310 303 304 300 297 324 319 319 299 295 300 290 300 295 290 291 295 293 292 286 271 277 282 285 282 282 283 287 286 287 286 282 283 282 278 279 278 277 278 276 276 275 277 271 266 270
322 324 325 311 308 304 304 299 304 309 308 303 287 285 290 292 296 286 302 286 276 284 289 298 292 283 283 281 282 287 289 290 287 287 287 287 284 282 279 277 276 275 274 274 275 272 273 268 270